Showing default

SUPERVIEW NEO-1 04, 63126

Orbit data source: Space-Track

SUPERVIEW NEO-1 04, 63126 is a payload satellite owned by Siwei (CN) in SSO that was launched on Thu, 27 Feb 2025 UTC via a CHANG ZHENG 2C launch vehicle from the Jiuquan Satellite Launch Center, China (JSC). Payload-class satellites include a variety of spacecraft equipped with specific instruments for various scientific and technological missions. These include communications satellites like Starlink; space stations such as the ISS; scientific satellites like the Hubble; Earth observation satellites from companies like Planet Labs, Umbra, and HawkEye 360; GPS; miniature CubeSats for education and research; and military/defense satellites.

Loading next visibility...
Identifier
63126, 2025-040B
Orbit
SSO
Country
Flag of CNCN / PRC
Related business
Manufacturer
SAST
Mission
Operational Commercial Imaging
Bus & Motor
SIWEI, Unknown motor
Mass
540 kg wet, ~500 kg dry
Launch date (UTC)
2025-02-27 (10 months ago)
Launch vehicle
CHANG ZHENG 2C
Launch site
Jiuquan Satellite Launch Center, China (JSC)
Object type
Payload
Rocket body
Debris
Shape & HBR
Box, 4.4 m
Radar Cross Section
0.375 m², Large (>1 m²)

Expand to show TLE details & history
Last TLE update: 3 days ago

TLE from 3 days ago
0 SUPERVIEW NEO-1 04
1 63126U 25040B   25346.70094303 -.00000491  00000-0 -18791-4 0  9991
2 63126  97.3396 100.7197 0001648  94.5806 265.5618 15.21657901 43831
Epoch: 2025-12-12T16:49Z
TLE epoch observation values (Epoch: 2025-12-12T16:49:21.477Z)
Latitude
-0.00009°
Longitude
126.74143°
Altitude
504.022 km
Speed
7.612 km/s
True Right ascension
06h 42m 52s
True Declination
0° 00' 00"
Sunlit
Object was in full shadow at epoch
Visualization orbit readout
Latitude
Unknown
Longitude
Unknown
Altitude
Unknown
Speed
Unknown
Apparent Right ascension
Unknown
Apparent Declination
Unknown
Sunlit
N/A
Visualization observer readout
Local Sidereal Time
13:24:48
Azimuth
Unknown
Elevation
Unknown
Doppler factor
Unknown
Orbital elements
Apogee altitude
498.933 km
Perigee altitude
496.667 km
Semi-major axis
6,875.937 km
Eccentricity
0.00016
Inclination
97.3396°
RAAN
100.7197°
Arg. of periapsis
94.5806°
True anomaly
265.54297°
Mean anomaly
265.5618°
Eccentric anomaly
265.55239°
Mean motion
3.80667 °/min
Orbital period
94.57 mins
BSTAR
-0.000018791
Loading maneuver chart data...
Computing Atmospheric mass density...
Loading historical data...
Loading historical data...
Loading historical data...
Loading historical data...
Loading historical data...
Loading historical data...
Loading historical data...
Other satellites on launch #40 in the year 2025 (2025-02-27 UTC)

Documentation

Showing up to 5 results
|